#timestamp,LO_Frequency,Hit 
1503273615.1,286046997.9,N
1503273635.9,286046994.9,N
1503273655.7,286046995.1,N
1503273675.5,286046995.3,N
1503273695.4,286046996.0,N
1503273715.2,286046995.6,N
1503273735.0,286046994.1,N
1503273735.9,286046994.1,N
1503273755.8,286046994.0,N
1503273775.6,286046995.5,N
1503273795.4,286046997.5,N
1503273815.3,286046996.0,N
1503273835.1,286046994.4,N
1503273836.0,286046994.4,N
1503273855.8,286046992.7,N
1503273875.7,286046994.6,N
1503273895.5,286046994.6,N
1503273915.3,286046995.3,N
1503273935.1,286046999.4,N
1503273955.9,286046999.3,N
1503273975.7,286047002.8,N
1503273995.5,286047001.5,N
1503274015.4,286047003.9,N
1503274035.2,286046996.5,N
1503274055.0,286046996.3,N
1503274055.9,286046996.3,N
1503274075.8,286046997.7,N
1503274095.6,286046995.5,N
1503274115.4,286046994.9,N
1503274135.3,286046996.0,N
1503274155.1,286046993.9,N
1503274156.0,286046993.9,N
1503274175.8,286046993.7,N
1503274195.7,286046990.6,P
1503274215.5,286046992.1,N
1503274235.3,286046991.8,P
1503274255.2,286046994.6,N
1503274275.9,286046994.2,N
1503274295.7,286046994.0,P
1503274315.6,286046998.1,P
1503274335.4,286046998.1,N
1503274355.2,286046998.3,N
1503274375.1,286046998.2,N
1503274376.0,286046998.2,N
1503274395.8,286047000.1,N
1503274415.6,286047003.2,N
1503274435.5,286047007.2,N
1503274455.3,286046998.6,N
1503274475.1,286046997.1,N
1503274495.8,286046997.1,N
1503274515.7,286046994.9,N
1503274535.5,286046996.4,N
1503274555.3,286046993.4,N
1503274575.2,286046997.0,N
1503274595.9,286046999.0,N
1503274615.7,286046997.2,N
1503274635.6,286046994.0,N
1503274655.4,286046994.8,N
1503274675.2,286046997.4,N
1503274695.1,286046994.9,N
1503274696.0,286046994.9,N
1503274715.8,286046997.5,N
1503274735.6,286046997.2,N
1503274755.5,286046998.7,N
1503274775.3,286047001.0,N
1503274795.1,286047000.8,N
1503274815.8,286047000.2,N
1503274835.7,286047001.7,N
1503274855.5,286047005.8,N
1503274875.3,286047009.0,N
1503274895.2,286047009.1,N
1503274915.0,286047008.3,N
1503274915.9,286047008.3,N
1503274935.7,286047006.1,N
1503274955.6,286047006.9,N
1503274975.4,286047007.4,N
1503274995.2,286047010.8,N
1503275015.1,286047008.2,N
1503275016.0,286047008.2,N
1503275035.8,286047009.1,N
1503275055.6,286047006.5,N
1503275075.5,286047007.8,N
1503275095.3,286047008.8,N
1503275115.1,286047007.5,N
1503275135.9,286047008.0,N
1503275155.7,286047006.8,N
1503275175.5,286047006.9,N
1503275195.4,286047007.2,N
1503275215.2,286047008.2,N
1503275235.0,286047008.9,N
1503275235.9,286047008.9,N
1503275255.8,286047012.3,P
1503275275.6,286047005.4,N
1503275295.4,286047004.5,N
1503275315.3,286047006.0,N
1503275335.1,286047001.9,N
1503275336.0,286047001.9,N
1503275355.8,286047001.1,N
1503275375.6,286047000.1,N
1503275395.5,286047000.6,N
1503275415.3,286046998.9,N
1503275435.1,286047000.9,N
1503275455.9,286046999.9,N
1503275475.7,286047002.8,N
1503275495.5,286047001.3,N
1503275515.4,286047004.4,N
1503275535.2,286047003.6,N
1503275555.0,286047001.5,N
1503275555.9,286047001.5,N
1503275575.8,286047001.6,N
1503275595.6,286047005.7,N
1503275615.4,286047004.0,N
1503275635.3,286047004.0,N
1503275655.1,286047001.5,N
1503275656.0,286047001.5,N
1503275675.8,286047004.2,N
1503275695.7,286047005.0,N
1503275715.5,286047006.7,N
1503275735.3,286047004.8,N
1503275755.1,286047005.2,N
1503275775.9,286047008.7,P
1503275795.7,286047006.3,N
1503275815.5,286047006.8,P
1503275835.4,286047007.3,P
1503275855.2,286047001.1,N
1503275875.1,286046997.4,N
1503275876.0,286046997.4,N
1503275895.8,286047001.2,N
1503275915.6,286046999.4,N
1503275935.5,286047000.4,N
1503275955.3,286047001.6,N
1503275975.1,286047003.6,N
1503275995.8,286046996.9,N
1503276015.7,286046998.2,N
1503276035.5,286047003.0,N
1503276055.3,286047005.6,N
1503276075.2,286047004.9,N
1503276095.9,286047005.6,N
1503276115.7,286047005.7,N
1503276135.6,286047007.6,N
1503276155.4,286047001.9,N
1503276175.2,286047002.6,N
1503276195.1,286046996.5,N
1503276196.0,286046996.5,N
1503276215.8,286047000.7,N
1503276235.6,286047000.4,N
1503276255.5,286046998.8,N
1503276275.3,286047004.4,N
1503276295.1,286046996.7,N
1503276315.8,286046996.4,N
1503276335.7,286046993.0,N
1503276355.5,286046990.7,N
1503276375.3,286046991.5,N
1503276395.2,286046989.4,N
1503276415.9,286046992.3,N
1503276435.7,286046993.1,N
1503276455.6,286046988.5,N
1503276475.4,286046990.7,N
1503276495.2,286046994.5,N
1503276515.1,286046993.0,N
1503276516.0,286046993.0,N
1503276535.8,286046994.4,N
1503276555.6,286046996.4,N
1503276575.5,286046995.7,N
1503276595.3,286046993.4,N
1503276615.1,286046990.3,N
1503276635.9,286046988.1,N
1503276655.7,286046981.9,P
1503276675.5,286046986.8,N
1503276695.4,286046989.9,N
1503276715.2,286046987.9,N
1503276735.0,286046987.1,N
1503276735.9,286046987.1,P
1503276755.8,286047001.3,N
1503276775.6,286047005.0,N
1503276795.4,286047011.7,N
1503276815.3,286047013.6,N
1503276835.1,286047008.3,N
1503276836.0,286047008.3,N
1503276855.8,286047003.8,N
1503276875.7,286046999.5,N
1503276895.5,286046993.4,N
1503276915.3,286046999.1,N
1503276935.1,286046998.8,N
1503276955.9,286046998.1,N
1503276975.7,286046999.0,N
1503276995.5,286047004.4,N
1503277015.4,286047004.8,N
1503277035.2,286047006.1,N
1503277055.0,286047010.1,N
1503277055.9,286047010.1,N
1503277075.8,286047013.0,N
1503277095.6,286047009.8,N
1503277115.4,286047010.7,N
1503277135.3,286047008.5,N
1503277155.1,286047006.2,N
1503277156.0,286047006.2,N
1503277175.8,286047009.6,N
1503277195.7,286047012.0,N
